St. Charles, IL

9:38 PM CDT on May 27, 2017 (GMT -0500)
Saint Charles County Smartt

Weather History for KSET - January, 2013

Change the Weather History Date:

Monday, January 28, 2013

  Actual Average (KSTL) Record (KSTL)
Temperature  
Mean Temperature 58 °F -  
Max Temperature 70 °F 40 °F 76 °F (1970)
Min Temperature 45 °F 22 °F -11 °F (1936)
Degree Days  
Heating Degree Days 8    
Growing Degree Days 8 (Base 50)    
Moisture  
Dew Point 51 °F    
Average Humidity 91    
Maximum Humidity 100    
Minimum Humidity 71    
Precipitation  
Precipitation 0.00 in - - ()
Sea Level Pressure  
Sea Level Pressure 29.91 in    
Wind  
Wind Speed 8 mph (ESE)    
Max Wind Speed 13 mph    
Max Gust Speed -    
Visibility 5 miles    
Events Fog , Rain    
Averages and records for this station are not official NWS values.
T = Trace of Precipitation, MM = Missing Value Source: NWS Daily Summary

Daily Weather History Graph

Daily Weather History Graph

Search for Another Location

Airport or City:

Trip Planner

Search our weather history database for the weather conditions in past years. The results will help you decide how hot, cold, wet, or windy it might be!

Date:

Astronomy

Jan. 28, 2013 Rise Set
Actual Time 7:11 AM CST 5:18 PM CST
Civil Twilight 6:42 AM CST 5:47 PM CST
Nautical Twilight 6:10 AM CST 6:19 PM CST
Astronomical Twilight 5:39 AM CST 6:50 PM CST
Moon 7:12 PM CST 7:38 AM CST
Length of Visible Light 11h 04m
Length of Day
10h 07m
Full, 98% of the Moon is Illuminated
Jan 28
Full
Feb 3
Last Quarter
Feb 10
New
Feb 17
First Quarter
Feb 25
Full

Hourly Weather History & Observations

Time (CST) Temp. Windchill Dew Point Humidity Pressure Visibility Wind Dir Wind Speed Gust Speed Precip Events Conditions
12:54 AM 46.9 °F - 45.0 °F 93% 29.94 in 3.0 mi SE 9.2 mph - 0.00 in   Overcast
1:54 AM 46.0 °F 41.9 °F 45.0 °F 96% 29.95 in 2.5 mi East 8.1 mph - N/A   Overcast
2:54 AM 45.0 °F 40.6 °F 44.1 °F 97% 29.94 in 1.8 mi East 8.1 mph - N/A   Overcast
3:29 AM 46.4 °F 42.9 °F 44.6 °F 93% 29.93 in 2.0 mi East 6.9 mph - N/A   Overcast
3:39 AM 46.4 °F 41.5 °F 44.6 °F 93% 29.92 in 1.5 mi East 10.4 mph - N/A   Overcast
3:54 AM 46.9 °F - 46.0 °F 97% 29.93 in 1.8 mi East 8.1 mph - N/A   Overcast
4:03 AM 48.2 °F - 46.4 °F 93% 29.93 in 2.5 mi East 4.6 mph - N/A   Overcast
4:38 AM 46.4 °F 42.9 °F 46.4 °F 100% 29.93 in 1.8 mi East 6.9 mph - N/A   Overcast
4:54 AM 46.9 °F - 46.0 °F 97% 29.93 in 1.5 mi East 9.2 mph - N/A   Overcast
5:50 AM 46.4 °F 41.5 °F 46.4 °F 100% 29.91 in 1.8 mi East 10.4 mph - N/A   Overcast
5:54 AM 48.0 °F - 46.9 °F 96% 29.92 in 1.8 mi East 9.2 mph - N/A   Overcast
6:18 AM 48.2 °F - 46.4 °F 93% 29.92 in 2.5 mi East 6.9 mph - N/A   Overcast
6:54 AM 50.0 °F - 48.9 °F 96% 29.94 in 2.5 mi NE 4.6 mph - N/A   Overcast
7:20 AM 51.8 °F - 50.0 °F 94% 29.94 in 3.0 mi NNE 3.5 mph - 0.00 in Rain Light Rain
7:27 AM 50.0 °F - 48.2 °F 94% 29.95 in 2.0 mi NNE 3.5 mph - 0.00 in   Overcast
7:35 AM 48.2 °F - 48.2 °F 100% 29.95 in 1.2 mi Calm Calm - 0.00 in   Overcast
7:47 AM 48.2 °F - 48.2 °F 100% 29.95 in 0.2 mi East 3.5 mph - 0.00 in Fog Fog
7:54 AM 48.0 °F - 48.0 °F 100% 29.95 in 0.2 mi East 4.6 mph - 0.00 in Fog Fog
8:07 AM 48.2 °F - 46.4 °F 93% 29.95 in 0.2 mi East 5.8 mph - N/A Fog Fog
8:28 AM 48.2 °F - 48.2 °F 100% 29.95 in 1.8 mi ESE 4.6 mph - N/A   Overcast
8:50 AM 51.8 °F - 50.0 °F 94% 29.95 in 2.5 mi East 5.8 mph - N/A   Overcast
8:54 AM 51.1 °F - 50.0 °F 96% 29.95 in 2.5 mi East 5.8 mph - N/A   Overcast
9:27 AM 53.6 °F - 51.8 °F 94% 29.95 in 3.0 mi ESE 3.5 mph - N/A   Overcast
9:54 AM 60.1 °F - 55.9 °F 86% 29.95 in 8.0 mi South 6.9 mph - N/A   Overcast
11:54 AM 64.0 °F - 57.9 °F 80% 29.93 in 10.0 mi South 12.7 mph - N/A   Overcast
12:54 PM 66.0 °F - 59.0 °F 78% 29.90 in 10.0 mi South 9.2 mph - N/A   Overcast
1:54 PM 69.1 °F - 60.1 °F 73% 29.87 in 10.0 mi South 9.2 mph - N/A   Mostly Cloudy
2:54 PM 70.0 °F - 60.1 °F 71% 29.86 in 10.0 mi South 11.5 mph - N/A   Unknown
3:54 PM 70.0 °F - 60.1 °F 71% 29.85 in 10.0 mi South 9.2 mph - N/A   Partly Cloudy
4:54 PM 66.0 °F - 57.9 °F 75% 29.86 in 10.0 mi South 8.1 mph - N/A   Partly Cloudy
5:54 PM 61.0 °F - 55.9 °F 83% 29.86 in 10.0 mi SE 11.5 mph - N/A   Mostly Cloudy
6:54 PM 61.0 °F - 57.0 °F 87% 29.87 in 9.0 mi SE 12.7 mph - N/A   Clear
7:54 PM 60.1 °F - 57.0 °F 90% 29.87 in 8.0 mi SSE 12.7 mph - N/A   Clear
8:54 PM 57.9 °F - 55.9 °F 93% 29.87 in 7.0 mi SE 6.9 mph - N/A   Clear
9:54 PM 60.1 °F - 57.0 °F 90% 29.87 in 9.0 mi South 11.5 mph - N/A   Clear
10:54 PM 61.0 °F - 57.9 °F 90% 29.85 in 10.0 mi South 12.7 mph - N/A   Scattered Clouds
11:54 PM 61.0 °F - 57.9 °F 90% 29.83 in 9.0 mi SSE 11.5 mph - N/A   Clear